| time (UTC) | temp F | wind direction | speed MPH | gust MPH | rain 1hr in | rain 24hr in | rain mn in | humidity % | barometer mb |
| 20260505182035 | 78 | 232 | 1.0 | 16.0 | 0.00 | 0.00 | 0.00 | 48 | 1008.2 |
| 20260505181926 | 78 | 194 | 1.0 | 16.0 | 0.00 | 0.00 | 0.00 | 48 | 1008.2 |
| 20260505180036 | 77 | 230 | 7.0 | 19.0 | 0.00 | 0.00 | 0.00 | 48 | 1008.4 |
| 20260505174036 | 76 | 207 | 0.0 | 19.0 | 0.00 | 0.00 | 0.00 | 48 | 1008.8 |
| 20260505172034 | 75 | 254 | 6.0 | 19.0 | 0.00 | 0.00 | 0.00 | 52 | 1009.0 |
| 20260505171926 | 75 | 173 | 1.0 | 19.0 | 0.00 | 0.00 | 0.00 | 53 | 1009.1 |
| 20260505170036 | 74 | 192 | 2.0 | 12.0 | 0.00 | 0.00 | 0.00 | 53 | 1009.4 |
| 20260505164036 | 74 | 216 | 11.0 | 12.0 | 0.00 | 0.00 | 0.00 | 54 | 1009.5 |
| 20260505162036 | 74 | 187 | 5.0 | 12.0 | 0.00 | 0.00 | 0.00 | 57 | 1009.7 |
| 20260505161926 | 74 | 207 | 0.0 | 12.0 | 0.00 | 0.00 | 0.00 | 56 | 1009.7 |
| 20260505152035 | 70 | 227 | 3.0 | 11.0 | 0.00 | 0.00 | 0.00 | 61 | 1010.3 |
| 20260505151926 | 70 | 223 | 0.0 | 11.0 | 0.00 | 0.00 | 0.00 | 60 | 1010.3 |
| 20260505124034 | 57 | 206 | 0.0 | 10.0 | 0.00 | 0.00 | 0.00 | 37 | 1011.2 |
| 20260505122034 | 55 | 166 | 0.0 | 10.0 | 0.00 | 0.00 | 0.00 | 25 | 1011.3 |
| 20260505121926 | 55 | 166 | 0.0 | 10.0 | 0.00 | 0.00 | 0.00 | 25 | 1011.4 |
| 20260505120035 | 54 | 198 | 0.0 | 0.0 | 0.00 | 0.00 | 0.00 | 10 | 1011.2 |
| 20260505114034 | 52 | 220 | 0.0 | 0.0 | 0.00 | 0.00 | 0.00 | 100 | 1011.1 |
| 20260505112034 | 50 | 219 | 0.0 | 0.0 | 0.00 | 0.00 | 0.00 | 1 | 1011.1 |
| 20260505111926 | 50 | 219 | 0.0 | 0.0 | 0.00 | 0.00 | 0.00 | 1 | 1011.1 |
| 20260505102034 | 48 | 219 | 0.0 | 0.0 | 0.00 | 0.00 | 0.00 | 2 | 1010.7 |
| 20260505101926 | 48 | 219 | 0.0 | 0.0 | 0.00 | 0.00 | 0.00 | 2 | 1010.6 |
| 20260505100034 | 47 | 219 | 0.0 | 0.0 | 0.00 | 0.00 | 0.00 | 2 | 1010.3 |
| 20260505094034 | 46 | 219 | 0.0 | 0.0 | 0.00 | 0.00 | 0.00 | 5 | 1010.3 |
| 20260505092034 | 46 | 219 | 0.0 | 0.0 | 0.00 | 0.00 | 0.00 | 9 | 1010.4 |
| 20260505091926 | 46 | 219 | 0.0 | 0.0 | 0.00 | 0.00 | 0.00 | 10 | 1010.4 |
| 20260505084035 | 45 | 219 | 0.0 | 0.0 | 0.00 | 0.00 | 0.00 | 16 | 1010.7 |
| 20260505082034 | 46 | 219 | 0.0 | 0.0 | 0.00 | 0.00 | 0.00 | 15 | 1010.8 |
| 20260505081926 | 46 | 219 | 0.0 | 0.0 | 0.00 | 0.00 | 0.00 | 15 | 1010.8 |
| 20260505080034 | 46 | 219 | 0.0 | 0.0 | 0.00 | 0.00 | 0.00 | 17 | 1010.8 |
| 20260505074034 | 46 | 219 | 0.0 | 0.0 | 0.00 | 0.00 | 0.00 | 22 | 1010.9 |
| 20260505071926 | 47 | 219 | 0.0 | 0.0 | 0.00 | 0.00 | 0.00 | 22 | 1010.7 |
| 20260505070035 | 47 | 219 | 0.0 | 0.0 | 0.00 | 0.00 | 0.00 | 23 | 1010.9 |
| 20260505062034 | 48 | 219 | 0.0 | 0.0 | 0.00 | 0.00 | 0.00 | 29 | 1011.0 |
| 20260505061926 | 48 | 219 | 0.0 | 0.0 | 0.00 | 0.00 | 0.00 | 29 | 1011.0 |
| 20260505054033 | 49 | 219 | 0.0 | 0.0 | 0.00 | 0.00 | 0.00 | 35 | 1011.3 |
| 20260505052035 | 49 | 219 | 0.0 | 0.0 | 0.00 | 0.00 | 0.00 | 40 | 1011.1 |
| 20260505051926 | 49 | 219 | 0.0 | 0.0 | 0.00 | 0.00 | 0.00 | 40 | 1011.2 |
| 20260505040034 | 52 | 227 | 0.0 | 4.0 | 0.00 | 0.00 | 0.00 | 50 | 1011.4 |
| 20260505034034 | 52 | 192 | 0.0 | 8.0 | 0.00 | 0.00 | 0.00 | 52 | 1011.3 |
| 20260505032035 | 52 | 192 | 0.0 | 8.0 | 0.00 | 0.00 | 0.00 | 56 | 1011.3 |
| 20260505031926 | 52 | 192 | 0.0 | 8.0 | 0.00 | 0.00 | 0.00 | 56 | 1011.3 |
| 20260505024034 | 53 | 190 | 5.0 | 6.0 | 0.00 | 0.00 | 0.00 | 60 | 1011.4 |
| 20260505022034 | 54 | 205 | 0.0 | 6.0 | 0.00 | 0.00 | 0.00 | 62 | 1011.5 |
| 20260505021926 | 54 | 205 | 0.0 | 6.0 | 0.00 | 0.00 | 0.00 | 62 | 1011.5 |
| 20260505020034 | 54 | 180 | 0.0 | 10.0 | 0.00 | 0.00 | 0.00 | 63 | 1011.5 |
| 20260505014034 | 54 | 179 | 0.0 | 10.0 | 0.00 | 0.00 | 0.00 | 65 | 1011.5 |
| 20260505012034 | 55 | 198 | 0.0 | 10.0 | 0.00 | 0.00 | 0.00 | 65 | 1011.3 |
| 20260505011926 | 55 | 205 | 0.0 | 10.0 | 0.00 | 0.00 | 0.00 | 65 | 1011.2 |
| 20260505010034 | 56 | 177 | 4.0 | 10.0 | 0.00 | 0.00 | 0.00 | 66 | 1010.8 |
| 20260505004034 | 56 | 157 | 0.0 | 10.0 | 0.00 | 0.00 | 0.00 | 65 | 1010.4 |
| 20260505002035 | 58 | 203 | 0.0 | 10.0 | 0.00 | 0.00 | 0.00 | 62 | 1010.0 |
| 20260505001926 | 58 | 179 | 0.0 | 10.0 | 0.00 | 0.00 | 0.00 | 62 | 1010.1 |
| 20260505000034 | 59 | 178 | 0.0 | 10.0 | 0.00 | 0.00 | 0.00 | 60 | 1009.7 |
| 20260504234034 | 60 | 188 | 0.0 | 14.0 | 0.00 | 0.00 | 0.00 | 57 | 1009.4 |
| 20260504232035 | 61 | 229 | 0.0 | 14.0 | 0.00 | 0.00 | 0.00 | 54 | 1009.2 |
| 20260504231926 | 61 | 236 | 0.0 | 14.0 | 0.00 | 0.00 | 0.00 | 54 | 1009.2 |
| 20260504230034 | 63 | 165 | 4.0 | 21.0 | 0.00 | 0.00 | 0.00 | 51 | 1009.0 |
| 20260504224035 | 64 | 219 | 0.0 | 21.0 | 0.00 | 0.00 | 0.00 | 48 | 1008.9 |
| 20260504222034 | 64 | 209 | 4.0 | 21.0 | 0.00 | 0.00 | 0.00 | 48 | 1008.9 |
| 20260504221926 | 64 | 201 | 0.0 | 21.0 | 0.00 | 0.00 | 0.00 | 48 | 1008.8 |
| 20260504220035 | 65 | 180 | 5.0 | 21.0 | 0.00 | 0.00 | 0.00 | 46 | 1008.7 |
| 20260504214033 | 66 | 171 | 0.0 | 21.0 | 0.00 | 0.00 | 0.00 | 44 | 1008.6 |
| 20260504212033 | 67 | 220 | 12.0 | 21.0 | 0.00 | 0.00 | 0.00 | 42 | 1008.5 |
| 20260504211926 | 67 | 218 | 7.0 | 21.0 | 0.00 | 0.00 | 0.00 | 42 | 1008.5 |
| 20260504210033 | 67 | 190 | 0.0 | 24.0 | 0.00 | 0.00 | 0.00 | 41 | 1008.4 |
| 20260504204033 | 68 | 198 | 5.0 | 24.0 | 0.00 | 0.00 | 0.00 | 40 | 1008.4 |
| 20260504202033 | 68 | 165 | 5.0 | 24.0 | 0.00 | 0.00 | 0.00 | 40 | 1008.3 |
| 20260504201926 | 68 | 177 | 0.0 | 24.0 | 0.00 | 0.00 | 0.00 | 40 | 1008.4 |
| 20260504200033 | 69 | 163 | 0.0 | 19.0 | 0.00 | 0.00 | 0.00 | 36 | 1008.3 |
| 20260504194033 | 70 | 167 | 0.0 | 19.0 | 0.00 | 0.00 | 0.00 | 35 | 1008.3 |
| 20260504192033 | 69 | 224 | 19.0 | 19.0 | 0.00 | 0.00 | 0.00 | 34 | 1008.3 |
| 20260504191926 | 69 | 200 | 11.0 | 19.0 | 0.00 | 0.00 | 0.00 | 35 | 1008.2 |
| 20260504190033 | 69 | 178 | 0.0 | 24.0 | 0.00 | 0.00 | 0.00 | 34 | 1008.4 |
| 20260504184035 | 69 | 247 | 0.0 | 24.0 | 0.00 | 0.00 | 0.00 | 33 | 1008.6 |